Location: Newark
(34.9500°N, 139.9667°E)
Time: 07:57:18
(UTC+00:00)

Vanguard 2 Rocket - Pass Details

Date: 08 December 2019
Orbit: 554 x 3326 km, 32.9° (Epoch: 20 January)

Event Time Altitude Azimuth Distance (km) Brightness Sun altitude
Rises 04:53:40 0° 190° (S) 7,264 12.6 23.3°
Reaches altitude 10° 05:02:51 10° 169° (S) 5,954 11.8 22.1°
Maximum altitude 05:10:11 14° 145° (SE) 5,208 11.0 21.2°
Drops below altitude 10° 05:16:30 10° 120° (ESE) 5,038 10.6 20.4°
Sets 05:22:40 0° 97° (E) 5,450 10.5 19.6°
